When you browse on this site, cookies collect data to enhance your experience and personalize the content and advertising you see.
Visit our Privacy Policy to learn more. By continuing to use the site, you agree to this use of cookies and data.
  • In Switzerland
  • List of Countries
  • For 7 days
  • Water Temperature
  • Weather Map
  • Weather Widgets
  • user-avatar
    Login

    Hourly Weather Tours

    Today, 15 November, Friday

    Time Temperature Precipitation Wind Pressure Humidity
    00:00 +4°C° 0 mm 2 mps 744 mmHg 93%
    01:00 +4°C° 0 mm 2 mps 744 mmHg 94%
    02:00 +3°C° 0 mm 2 mps 744 mmHg 94%
    03:00 +2°C° 0 mm 3 mps 744 mmHg 95%
    04:00 +3°C° 0 mm 2 mps 744 mmHg 95%
    05:00 +3°C° 0 mm 2 mps 744 mmHg 96%
    06:00 +3°C° 0 mm 2 mps 744 mmHg 96%
    07:00 +3°C° 0 mm 2 mps 745 mmHg 93%
    08:00 +4°C° 0 mm 2 mps 745 mmHg 91%
    09:00 +3°C° 0 mm 3 mps 746 mmHg 88%
    10:00 +5°C° 0 mm 2 mps 746 mmHg 84%
    11:00 +6°C° 0 mm 2 mps 746 mmHg 80%
    12:00 +6°C° 0 mm 2 mps 745 mmHg 76%
    13:00 +5°C° 0.2 mm 3 mps 745 mmHg 77%
    14:00 +5°C° 0.2 mm 3 mps 745 mmHg 78%
    15:00 +5°C° 0.2 mm 4 mps 745 mmHg 79%
    16:00 +5°C° 0.1 mm 4 mps 745 mmHg 82%
    17:00 +5°C° 0.1 mm 4 mps 745 mmHg 84%
    18:00 +5°C° 0.1 mm 4 mps 745 mmHg 87%
    19:00 +5°C° 0 mm 4 mps 746 mmHg 88%
    20:00 +5°C° 0 mm 4 mps 746 mmHg 88%
    21:00 +5°C° 0 mm 4 mps 746 mmHg 88%
    22:00 +5°C° 0 mm 5 mps 746 mmHg 89%
    23:00 +3°C° 0 mm 5 mps 746 mmHg 89%

    Tomorrow, 16 November, Saturday

    Time Temperature Precipitation Wind Pressure Humidity
    00:00 +3°C° 0 mm 5 mps 746 mmHg 90%
    01:00 +3°C° 0.3 mm 5 mps 746 mmHg 90%
    02:00 +3°C° 0.3 mm 6 mps 746 mmHg 90%
    03:00 +4°C° 0.3 mm 6 mps 747 mmHg 90%
    04:00 +3°C° 0.6 mm 6 mps 747 mmHg 90%
    05:00 +3°C° 0.6 mm 6 mps 747 mmHg 89%
    06:00 +3°C° 0.6 mm 6 mps 747 mmHg 89%
    07:00 +3°C° 0.4 mm 6 mps 748 mmHg 89%
    08:00 +3°C° 0.4 mm 5 mps 749 mmHg 88%
    09:00 +5°C° 0.4 mm 5 mps 749 mmHg 88%
    10:00 +5°C° 0.3 mm 5 mps 749 mmHg 88%
    11:00 +5°C° 0.3 mm 5 mps 749 mmHg 88%
    12:00 +5°C° 0.3 mm 5 mps 750 mmHg 88%
    13:00 +5°C° 0.3 mm 4 mps 750 mmHg 88%
    14:00 +5°C° 0.3 mm 4 mps 750 mmHg 88%
    15:00 +5°C° 0.3 mm 3 mps 750 mmHg 88%
    16:00 +5°C° 0.1 mm 3 mps 750 mmHg 88%
    17:00 +5°C° 0.1 mm 3 mps 751 mmHg 89%
    18:00 +5°C° 0.1 mm 3 mps 751 mmHg 89%
    19:00 +5°C° 0 mm 3 mps 751 mmHg 89%
    20:00 +5°C° 0 mm 3 mps 751 mmHg 88%
    21:00 +5°C° 0 mm 3 mps 752 mmHg 88%
    22:00 +6°C° 0 mm 2 mps 752 mmHg 89%
    23:00 +5°C° 0 mm 2 mps 752 mmHg 90%

    Day after tomorrow, 17 November, Sunday

    Time Temperature Precipitation Wind Pressure Humidity
    00:00 +5°C° 0 mm 1 mps 752 mmHg 91%
    01:00 +5°C° 0 mm 1 mps 752 mmHg 92%
    02:00 +4°C° 0 mm 1 mps 752 mmHg 93%
    03:00 +4°C° 0 mm 1 mps 751 mmHg 93%
    04:00 +3°C° 0 mm 2 mps 751 mmHg 93%
    05:00 +2°C° 0 mm 2 mps 751 mmHg 93%
    06:00 +2°C° 0 mm 2 mps 751 mmHg 93%
    07:00 +3°C° 0 mm 2 mps 751 mmHg 91%
    08:00 +3°C° 0 mm 2 mps 752 mmHg 88%
    09:00 +4°C° 0 mm 2 mps 752 mmHg 86%
    10:00 +6°C° 0 mm 1 mps 751 mmHg 80%
    11:00 +7°C° 0 mm 1 mps 751 mmHg 74%
    12:00 +8°C° 0 mm 1 mps 751 mmHg 68%
    13:00 +9°C° 0 mm 1 mps 751 mmHg 68%
    14:00 +8°C° 0 mm 2 mps 751 mmHg 68%
    15:00 +8°C° 0 mm 2 mps 751 mmHg 68%
    16:00 +7°C° 0 mm 2 mps 751 mmHg 73%
    17:00 +5°C° 0 mm 2 mps 751 mmHg 78%
    18:00 +4°C° 0 mm 2 mps 751 mmHg 83%
    19:00 +4°C° 0 mm 2 mps 752 mmHg 84%
    20:00 +4°C° 0 mm 2 mps 752 mmHg 86%
    21:00 +4°C° 0 mm 1 mps 752 mmHg 87%
    22:00 +4°C° 0 mm 1 mps 752 mmHg 88%
    23:00 +4°C° 0 mm 1 mps 752 mmHg 89%

    18 November, Monday

    Time Temperature Precipitation Wind Pressure Humidity
    00:00 +3°C° 0 mm 1 mps 752 mmHg 89%
    01:00 +3°C° 0 mm 1 mps 752 mmHg 90%
    02:00 +3°C° 0 mm 1 mps 752 mmHg 91%
    03:00 +2°C° 0 mm 2 mps 752 mmHg 91%
    04:00 +2°C° 0 mm 2 mps 752 mmHg 91%
    05:00 +3°C° 0 mm 1 mps 752 mmHg 92%
    06:00 +3°C° 0 mm 1 mps 752 mmHg 92%
    07:00 +2°C° 0 mm 2 mps 753 mmHg 90%
    08:00 +2°C° 0 mm 3 mps 753 mmHg 87%
    09:00 +3°C° 0 mm 3 mps 753 mmHg 85%
    10:00 +4°C° 0 mm 3 mps 753 mmHg 82%
    11:00 +5°C° 0 mm 4 mps 753 mmHg 79%
    12:00 +6°C° 0 mm 4 mps 753 mmHg 76%
    13:00 +6°C° 0 mm 4 mps 753 mmHg 76%
    14:00 +7°C° 0 mm 4 mps 753 mmHg 77%
    15:00 +7°C° 0 mm 4 mps 753 mmHg 78%
    16:00 +7°C° 0.1 mm 3 mps 753 mmHg 81%
    17:00 +5°C° 0.1 mm 3 mps 753 mmHg 84%
    18:00 +5°C° 0.1 mm 3 mps 754 mmHg 88%
    19:00 +5°C° 0.1 mm 3 mps 754 mmHg 88%
    20:00 +5°C° 0.1 mm 3 mps 754 mmHg 89%
    21:00 +4°C° 0.1 mm 3 mps 754 mmHg 90%
    22:00 +4°C° 0 mm 3 mps 754 mmHg 91%
    23:00 +3°C° 0 mm 3 mps 755 mmHg 92%

    19 November, Tuesday

    Time Temperature Precipitation Wind Pressure Humidity
    00:00 +3°C° 0 mm 3 mps 755 mmHg 93%
    01:00 +3°C° 0 mm 3 mps 755 mmHg 93%
    02:00 +3°C° 0 mm 2 mps 755 mmHg 93%
    03:00 +3°C° 0 mm 2 mps 754 mmHg 93%
    04:00 +3°C° 0 mm 3 mps 754 mmHg 93%
    05:00 +3°C° 0 mm 3 mps 755 mmHg 93%
    06:00 +3°C° 0 mm 3 mps 755 mmHg 92%
    07:00 +4°C° 0 mm 4 mps 755 mmHg 90%
    08:00 +4°C° 0 mm 4 mps 755 mmHg 87%
    09:00 +5°C° 0 mm 4 mps 755 mmHg 85%
    10:00 +6°C° 0 mm 5 mps 754 mmHg 82%
    11:00 +6°C° 0 mm 5 mps 754 mmHg 79%
    12:00 +7°C° 0 mm 5 mps 754 mmHg 77%
    13:00 +7°C° 0 mm 5 mps 753 mmHg 76%
    14:00 +8°C° 0 mm 5 mps 753 mmHg 75%
    15:00 +8°C° 0 mm 4 mps 752 mmHg 75%
    16:00 +7°C° 0 mm 4 mps 752 mmHg 77%
    17:00 +6°C° 0 mm 4 mps 752 mmHg 79%
    18:00 +5°C° 0 mm 4 mps 752 mmHg 82%
    19:00 +6°C° 0 mm 4 mps 752 mmHg 80%
    20:00 +6°C° 0 mm 5 mps 752 mmHg 78%
    21:00 +6°C° 0 mm 5 mps 751 mmHg 76%
    22:00 +6°C° 0 mm 5 mps 751 mmHg 75%
    23:00 +6°C° 0 mm 5 mps 751 mmHg 74%

    20 November, Wednesday

    Time Temperature Precipitation Wind Pressure Humidity
    00:00 +7°C° 0 mm 5 mps 750 mmHg 73%
    01:00 +5°C° 0.5 mm 6 mps 750 mmHg 78%
    02:00 +5°C° 0.5 mm 6 mps 750 mmHg 82%
    03:00 +5°C° 0.5 mm 6 mps 749 mmHg 86%
    04:00 +5°C° 0.5 mm 6 mps 749 mmHg 87%
    05:00 +5°C° 0.5 mm 6 mps 749 mmHg 87%
    06:00 +5°C° 0.5 mm 6 mps 748 mmHg 88%
    07:00 +7°C° 0.2 mm 6 mps 748 mmHg 85%
    08:00 +7°C° 0.2 mm 6 mps 748 mmHg 82%
    09:00 +8°C° 0.2 mm 7 mps 748 mmHg 79%
    10:00 +9°C° 0 mm 7 mps 748 mmHg 76%
    11:00 +10°C° 0 mm 8 mps 748 mmHg 73%
    12:00 +11°C° 0 mm 8 mps 747 mmHg 71%
    13:00 +11°C° 0.1 mm 7 mps 747 mmHg 72%
    14:00 +11°C° 0.1 mm 7 mps 747 mmHg 74%
    15:00 +10°C° 0.1 mm 6 mps 746 mmHg 75%
    16:00 +10°C° 0 mm 6 mps 746 mmHg 74%
    17:00 +10°C° 0 mm 6 mps 746 mmHg 74%
    18:00 +10°C° 0 mm 6 mps 746 mmHg 73%
    19:00 +10°C° 0 mm 6 mps 746 mmHg 74%
    20:00 +10°C° 0 mm 6 mps 745 mmHg 75%
    21:00 +10°C° 0 mm 6 mps 745 mmHg 77%
    22:00 +11°C° 0 mm 7 mps 744 mmHg 71%
    23:00 +11°C° 0 mm 8 mps 744 mmHg 66%
    Show more